Retour au catalogue

STARLINK-35505

ActifCommunicationsVLEO
NORAD 66329·PAYLOAD·🇺🇸 United States

Lancé Nov 6, 2025 depuis Cape Canaveral Space Force Station

Loading…

Prochains Passages (prochaines 24 heures)

TLE

FraisSource: CelesTrak SupGP

Époque: Sep 14, 2026, 20:56 UTC

1 66329C 25253L   26257.87270833  .00033638  00000+0  12183-2 0  2579
2 66329  43.0012 224.1067 0001413 262.8228 236.8231 15.27563621    13

Suivez STARLINK-35505 en temps réel avec AllMySat

Download on the App Store